(459879) = 2010 KD89 = 2014 JH22

Discovered at WISE on 2010-05-27 by WISE.

Orbit

Orbit type: Main Belt

Note: WebGL enabled browser required.

epoch2024-03-31.0
epoch JD2460400.5
perihelion date2021-10-13.18446
perihelion JD2459500.68446
argument of perihelion (°)200.42126
ascending node (°)83.68568
inclination (°)5.99442
eccentricity0.2194803
perihelion distance (AU)1.8173123
Tisserand w.r.t. Jupiter3.5
ΔV w.r.t. Earth (km/sec)8.6
semimajor axis (AU)2.3283362
mean anomaly (°)249.62542
mean daily motion (°/day)0.27741840
aphelion distance (AU)2.839
period (years)3.55
P-vector [x]0.24183606
P-vector [y]-0.87512631
P-vector [z]-0.41912917
Q-vector [x]0.96474934
Q-vector [y]0.26306693
Q-vector [z]0.00738291
absolute magnitude17.75
phase slope0.15
uncertainty0
referenceMPEC 2024-E144
observations used247
oppositions11
arc length (days)5576
first opposition used2008
last opposition used2024
residual rms (arc-secs)0.71
perturbers coarse indicatorM-v
perturbers precise indicator003Ek
first observation date used2008-12-03.0
last observation date used2024-03-10.0
computer nameMPCLINUX
JD of orbit computation2457420.611245
perihelion JD uncertainty (days)5.5014E-05
argument of perihelion uncertainty (°)2.8679E-05
ascending node uncertainty (°)2.5756E-05
inclination uncertainty (°)4.9816E-06
eccentricity uncertainty 4.4865E-08
perihelion distance uncertainty (AU)1.1903E-07
Minimum Orbit Intersection Distances (in AU)
for orbit epoch: 2460400.5, reference: E2024-EE4
Mercury1.36013
Venus1.08972
Earth0.80208
Mars0.36906
Jupiter2.30948
Saturn6.21483
Uranus15.8
Neptune27.1672

Observations

249 total observations over interval: 2008 12 03.37114 – 2024 03 10.360855
These data are available for download (format description).

Date (UT) J2000 RA J2000 Dec Magn Location Ref
2008 12 03.37114 05 10 28.63 +21 40 12.7 20.7 V G96 – Mt. Lemmon Survey MPS 523924
2008 12 03.37883 05 10 28.09 +21 40 13.3 20.8 V G96 – Mt. Lemmon Survey MPS 523925
2008 12 03.38657 05 10 27.58 +21 40 13.5 20.4 V G96 – Mt. Lemmon Survey MPS 523925
2008 12 03.39422 05 10 27.01 +21 40 13.7 20.7 V G96 – Mt. Lemmon Survey MPS 523925
2010 05 27.052756 10 58 18.27 +13 56 10.6   C51 – WISE MPS 329565
2010 05 27.05276 10 58 18.28 +13 56 10.8   C51 – WISE MPS 329565
2010 05 27.185060 10 58 24.22 +13 55 09.3   C51 – WISE MPS 329565
2010 05 27.317365 10 58 30.07 +13 54 08.2   C51 – WISE MPS 329565
2010 05 27.449668 10 58 36.06 +13 53 07.0   C51 – WISE MPS 329565
2010 05 27.58197 10 58 41.92 +13 52 04.7   C51 – WISE MPS 329565
2010 05 27.648182 10 58 44.81 +13 51 34.9   C51 – WISE MPS 329565
2010 05 27.714271 10 58 48.06 +13 51 06.1   C51 – WISE MPS 329565
2010 05 27.780486 10 58 50.93 +13 50 34.0   C51 – WISE MPS 329565
2010 05 27.846574 10 58 53.82 +13 50 01.6   C51 – WISE MPS 329565
2010 05 27.912791 10 58 56.82 +13 49 32.1   C51 – WISE MPS 329565
2010 05 28.045094 10 59 02.77 +13 48 31.3   C51 – WISE MPS 329565
2010 05 28.177398 10 59 08.930 +13 47 27.78   C51 – WISE MPS 904477
2010 05 28.309701 10 59 14.94 +13 46 27.0   C51 – WISE MPS 329565
2010 05 28.442006 10 59 20.92 +13 45 26.0   C51 – WISE MPS 329565
2011 09 09.33999 01 36 07.34 -00 45 27.5 19.7 J W91 – VHS-VISTA, Cerro Paranal MPS 675385
2011 09 09.34210 01 36 07.28 -00 45 28.1 20.0 J W91 – VHS-VISTA, Cerro Paranal MPS 675385
2011 09 09.35380 01 36 06.89 -00 45 31.7 19.5 H W91 – VHS-VISTA, Cerro Paranal MPS 675385
2011 09 17.36213 01 31 09.24 -01 28 17.8 19.6 J W91 – VHS-VISTA, Cerro Paranal MPS 675385
2011 09 17.37103 01 31 08.82 -01 28 20.9 19.7 J W91 – VHS-VISTA, Cerro Paranal MPS 675385
2011 09 17.38076 01 31 08.38 -01 28 23.8 19.0 H W91 – VHS-VISTA, Cerro Paranal MPS 675385
2011 09 17.38552 01 31 08.15 -01 28 25.7 19.4 H W91 – VHS-VISTA, Cerro Paranal MPS 675385
2011 09 23.46200 01 26 14.153 -02 02 43.83 21.0 w F51 – Pan-STARRS 1, Haleakala MPS 523925
2011 09 23.47736 01 26 13.296 -02 02 49.01 20.8 w F51 – Pan-STARRS 1, Haleakala MPS 523925
2011 09 23.49279 01 26 12.448 -02 02 54.27 20.9 w F51 – Pan-STARRS 1, Haleakala MPS 523925
2011 09 23.50841 01 26 11.595 -02 02 59.43 20.8 w F51 – Pan-STARRS 1, Haleakala MPS 523925
2012 12 23.56418 08 05 58.919 +24 14 14.53 21.8 w F51 – Pan-STARRS 1, Haleakala MPS 523925
2012 12 23.57865 08 05 58.165 +24 14 18.91 21.8 w F51 – Pan-STARRS 1, Haleakala MPS 523925
2012 12 23.60741 08 05 56.696 +24 14 26.81 22.1 w F51 – Pan-STARRS 1, Haleakala MPS 523925
2014 04 25.33891 16 09 45.20 -14 22 12.1   691 – Steward Observatory, Kitt Peak-Spacewatch MPS 514075
2014 04 25.35665 16 09 44.69 -14 22 12.7   691 – Steward Observatory, Kitt Peak-Spacewatch MPS 514075
2014 04 25.37440 16 09 44.18 -14 22 12.7   691 – Steward Observatory, Kitt Peak-Spacewatch MPS 514075
2014 04 29.34114 16 07 42.71 -14 23 05.6   691 – Steward Observatory, Kitt Peak-Spacewatch MPS 514075
2014 04 29.35887 16 07 42.05 -14 23 05.9   691 – Steward Observatory, Kitt Peak-Spacewatch MPS 514075
2014 04 29.37662 16 07 41.38 -14 23 06.1   691 – Steward Observatory, Kitt Peak-Spacewatch MPS 514075
2014 05 04.39581 16 04 23.68 -14 24 40.0 19.1 V G96 – Mt. Lemmon Survey MPS 514075
2014 05 04.40041 16 04 23.48 -14 24 40.0 19.1 V G96 – Mt. Lemmon Survey MPS 514075
2014 05 04.40500 16 04 23.25 -14 24 40.2 19.2 V G96 – Mt. Lemmon Survey MPS 514075
2014 05 04.40960 16 04 23.02 -14 24 40.5 19.5 V G96 – Mt. Lemmon Survey MPS 514075
2014 05 05.45255 16 03 36.670 -14 25 04.00 19.7 w F51 – Pan-STARRS 1, Haleakala MPS 514075
2014 05 05.46542 16 03 36.041 -14 25 04.47 19.5 w F51 – Pan-STARRS 1, Haleakala MPS 514075
2014 05 05.47828 16 03 35.402 -14 25 04.76 19.5 w F51 – Pan-STARRS 1, Haleakala MPS 514075
2014 05 05.49117 16 03 34.762 -14 25 05.00 19.7 w F51 – Pan-STARRS 1, Haleakala MPS 514075
2014 05 08.42779 16 01 14.301 -14 26 29.13 19.4 i F51 – Pan-STARRS 1, Haleakala MPS 514075
2014 05 08.44001 16 01 13.648 -14 26 29.48 19.4 i F51 – Pan-STARRS 1, Haleakala MPS 514075
2014 05 08.45221 16 01 12.995 -14 26 29.91 19.4 i F51 – Pan-STARRS 1, Haleakala MPS 514075
2014 05 08.46457 16 01 12.324 -14 26 30.32 19.3 i F51 – Pan-STARRS 1, Haleakala MPS 514075
2014 05 10.42548 15 59 31.591 -14 27 38.82 19.3 i F51 – Pan-STARRS 1, Haleakala MPS 514075
2014 05 10.43746 15 59 30.922 -14 27 39.29 19.4 i F51 – Pan-STARRS 1, Haleakala MPS 514075
2014 05 10.44943 15 59 30.243 -14 27 39.82 19.3 i F51 – Pan-STARRS 1, Haleakala MPS 514075
2014 05 10.46141 15 59 29.564 -14 27 40.31 19.3 i F51 – Pan-STARRS 1, Haleakala MPS 514075
2014 05 21.29384 15 49 03.37 -14 37 58.3 18.8 V G96 – Mt. Lemmon Survey MPS 515446
2014 05 21.30010 15 49 02.97 -14 37 58.5 18.7 V G96 – Mt. Lemmon Survey MPS 515446
2014 05 21.30637 15 49 02.57 -14 37 59.2 18.7 V G96 – Mt. Lemmon Survey MPS 515446
2014 05 21.31263 15 49 02.15 -14 37 59.8 19.0 V G96 – Mt. Lemmon Survey MPS 515446
2014 05 22.41811 15 47 54.592 -14 39 28.41 19.2 w F51 – Pan-STARRS 1, Haleakala MPS 515446
2014 05 22.43190 15 47 53.693 -14 39 29.56 19.2 w F51 – Pan-STARRS 1, Haleakala MPS 515446
2014 05 22.44533 15 47 52.819 -14 39 30.72 19.1 w F51 – Pan-STARRS 1, Haleakala MPS 515446
2014 05 22.45875 15 47 51.943 -14 39 31.80 19.1 w F51 – Pan-STARRS 1, Haleakala MPS 515446
2014 06 02.19497 15 37 10.66 -14 59 47.9 19.6 r G45 – Space Surveillance Telescope, Atom Site MPS 542362
2014 06 02.20656 15 37 09.94 -14 59 49.8 19.1 r G45 – Space Surveillance Telescope, Atom Site MPS 542362
2014 06 02.24126 15 37 07.89 -14 59 55.6 19.2 r G45 – Space Surveillance Telescope, Atom Site MPS 542362
2014 06 02.24254 15 37 07.86 -14 59 54.4 19.6 r G45 – Space Surveillance Telescope, Atom Site MPS 542362
2014 06 02.25410 15 37 07.15 -14 59 56.0 19.2 r G45 – Space Surveillance Telescope, Atom Site MPS 542362
2014 06 02.27176 15 37 06.12 -14 59 58.7 18.8 V G96 – Mt. Lemmon Survey MPS 517991
2014 06 02.27694 15 37 05.82 -14 59 59.4 18.8 V G96 – Mt. Lemmon Survey MPS 517991
2014 06 02.28214 15 37 05.49 -15 00 00.1 18.3 V G96 – Mt. Lemmon Survey MPS 517991
2014 06 02.28731 15 37 05.19 -15 00 00.8 18.5 V G96 – Mt. Lemmon Survey MPS 517991
2014 06 03.42714 15 36 01.979 -15 02 49.19 19.4 w F51 – Pan-STARRS 1, Haleakala MPS 517991
2014 06 03.43985 15 36 01.237 -15 02 51.03 19.4 w F51 – Pan-STARRS 1, Haleakala MPS 517991
2014 06 16.22571 15 26 25.75 -15 44 34.4 19.6 V G96 – Mt. Lemmon Survey MPS 519405
2014 06 16.23026 15 26 25.60 -15 44 35.5 19.4 V G96 – Mt. Lemmon Survey MPS 519405
2014 06 16.23482 15 26 25.41 -15 44 36.7 19.5 V G96 – Mt. Lemmon Survey MPS 519405
2014 06 16.23938 15 26 25.25 -15 44 37.6 19.4 V G96 – Mt. Lemmon Survey MPS 519405
2014 06 19.34079 15 24 51.427 -15 57 33.64 19.8 w F51 – Pan-STARRS 1, Haleakala MPS 519405
2014 06 19.35139 15 24 51.102 -15 57 36.34 19.8 w F51 – Pan-STARRS 1, Haleakala MPS 519405
2014 06 19.36198 15 24 50.776 -15 57 39.10 19.9 w F51 – Pan-STARRS 1, Haleakala MPS 519405
2014 06 19.37257 15 24 50.456 -15 57 41.81 20.1 w F51 – Pan-STARRS 1, Haleakala MPS 519405
2014 06 24.20740 15 23 06.42 -16 20 07.7 19.8 V G96 – Mt. Lemmon Survey MPS 520080
2014 06 24.21349 15 23 06.31 -16 20 09.7 19.9 V G96 – Mt. Lemmon Survey MPS 520080
2014 06 24.21958 15 23 06.19 -16 20 11.2 19.6 V G96 – Mt. Lemmon Survey MPS 520080
2014 06 24.22567 15 23 06.07 -16 20 13.0 19.6 V G96 – Mt. Lemmon Survey MPS 520080
2014 07 01.32118 15 22 12.048 -16 57 46.16 20.2 w F51 – Pan-STARRS 1, Haleakala MPS 522282
2014 07 01.33245 15 22 12.020 -16 57 50.05 20.2 w F51 – Pan-STARRS 1, Haleakala MPS 522282
2014 07 01.34372 15 22 11.991 -16 57 53.70 20.4 w F51 – Pan-STARRS 1, Haleakala MPS 522282
2014 07 01.35499 15 22 11.961 -16 57 57.52 20.3 w F51 – Pan-STARRS 1, Haleakala MPS 522282
2014 07 25.27022 15 33 32.055 -19 36 40.36 20.9 w F51 – Pan-STARRS 1, Haleakala MPS 523925
2014 07 25.28081 15 33 32.587 -19 36 45.06 20.8 w F51 – Pan-STARRS 1, Haleakala MPS 523925
2014 07 25.29139 15 33 33.119 -19 36 49.63 20.9 w F51 – Pan-STARRS 1, Haleakala MPS 523925
2014 07 25.30195 15 33 33.670 -19 36 54.26 21.0 w F51 – Pan-STARRS 1, Haleakala MPS 523925
2014 08 22.26390 16 10 29.253 -23 04 04.55 21.4 w F51 – Pan-STARRS 1, Haleakala MPS 527134
